ANA40 RJOO-RJTT

Flight info

Callsign ANA40
Flight time 1h 3m
Altitude 27000
Route ASUKA SHTLE Y71 XAC
Aircraft A20N/M-SDE2E3FGHIRWXY/LB1

Departure

Time 2026-05-01 11:55
Airport Osaka Itami International Airport (RJOO)

Arrival

Time 2026-05-01 12:59
Airport Tokyo Haneda International Airport (RJTT)
Time Latitude Longitude Altitude Speed Heading
2026-05-01 11:19 34.78722 135.44385 48 ft 0 kts 348°
2026-05-01 11:46 34.78719 135.44385 48 ft 3 kts 348°
2026-05-01 11:46 34.78698 135.44391 46 ft 3 kts 346°
2026-05-01 11:47 34.78678 135.44397 45 ft 3 kts 342°
2026-05-01 11:47 34.78658 135.44406 48 ft 3 kts 331°
2026-05-01 11:47 34.78643 135.44419 48 ft 3 kts 287°
2026-05-01 11:47 34.78642 135.44429 48 ft 0 kts 225°
2026-05-01 11:51 34.78641 135.44429 48 ft 1 kts 225°
2026-05-01 11:51 34.78628 135.44413 47 ft 5 kts 224°
2026-05-01 11:51 34.78580 135.44358 48 ft 14 kts 220°
2026-05-01 11:52 34.78473 135.44334 48 ft 18 kts 176°
2026-05-01 11:52 34.78334 135.44334 49 ft 22 kts 182°
2026-05-01 11:52 34.78180 135.44342 48 ft 21 kts 159°
2026-05-01 11:52 34.78062 135.44472 48 ft 27 kts 135°
2026-05-01 11:53 34.77917 135.44648 46 ft 31 kts 134°
2026-05-01 11:53 34.77761 135.44834 48 ft 31 kts 134°
2026-05-01 11:53 34.77599 135.44961 46 ft 20 kts 158°
2026-05-01 11:53 34.77470 135.45006 50 ft 13 kts 176°
2026-05-01 11:54 34.77433 135.44979 49 ft 7 kts 242°
2026-05-01 11:54 34.77445 135.44909 51 ft 12 kts 319°
2026-05-01 11:54 34.77457 135.44896 51 ft 0 kts 319°
2026-05-01 11:54 34.77484 135.44866 50 ft 20 kts 315°
2026-05-01 11:55 34.77748 135.44540 48 ft 85 kts 314°
2026-05-01 11:55 34.78295 135.43883 48 ft 134 kts 314°
2026-05-01 11:55 34.79013 135.43033 411 ft 139 kts 311°
2026-05-01 11:55 34.79496 135.42072 946 ft 134 kts 277°
2026-05-01 11:56 34.79301 135.40978 1441 ft 139 kts 238°
2026-05-01 11:56 34.78464 135.40315 1951 ft 159 kts 204°
2026-05-01 11:56 34.77237 135.40418 2223 ft 200 kts 167°
2026-05-01 11:56 34.76037 135.41531 2526 ft 239 kts 131°
2026-05-01 11:57 34.75364 135.43500 2944 ft 270 kts 95°
2026-05-01 11:57 34.75652 135.45812 3507 ft 286 kts 66°
2026-05-01 11:57 34.76449 135.48053 4409 ft 289 kts 58°
2026-05-01 11:57 34.77336 135.50238 5492 ft 288 kts 56°
2026-05-01 11:58 34.78233 135.52412 6538 ft 290 kts 58°
2026-05-01 11:58 34.78958 135.54744 7477 ft 300 kts 69°
2026-05-01 11:58 34.79386 135.59887 9352 ft 316 kts 86°
2026-05-01 11:59 34.79287 135.62581 10214 ft 323 kts 89°
2026-05-01 11:59 34.79117 135.65437 10609 ft 346 kts 90°
2026-05-01 11:59 34.78920 135.68455 10880 ft 370 kts 90°
2026-05-01 12:00 34.78503 135.74831 12258 ft 386 kts 90°
2026-05-01 12:00 34.78295 135.78112 13006 ft 393 kts 90°
2026-05-01 12:00 34.77881 135.84781 14390 ft 405 kts 90°
2026-05-01 12:01 34.77668 135.88216 15017 ft 410 kts 89°
2026-05-01 12:01 34.77451 135.91701 15680 ft 416 kts 89°
2026-05-01 12:01 34.77233 135.95226 16395 ft 419 kts 89°
2026-05-01 12:01 34.77011 135.98774 17093 ft 423 kts 89°
2026-05-01 12:02 34.76802 136.02395 17587 ft 432 kts 85°
2026-05-01 12:02 34.76927 136.06022 18201 ft 430 kts 77°
2026-05-01 12:02 34.77199 136.09660 18820 ft 433 kts 77°
2026-05-01 12:02 34.77467 136.13320 19423 ft 437 kts 77°
2026-05-01 12:03 34.77736 136.17019 20019 ft 441 kts 77°
2026-05-01 12:03 34.78004 136.20744 20617 ft 444 kts 77°
2026-05-01 12:03 34.78273 136.24512 21193 ft 448 kts 77°
2026-05-01 12:03 34.78543 136.28303 21771 ft 452 kts 77°
2026-05-01 12:04 34.78814 136.32130 22328 ft 456 kts 78°
2026-05-01 12:04 34.78879 136.33045 22464 ft 457 kts 78°
2026-05-01 12:04 34.79154 136.36932 23054 ft 460 kts 78°
2026-05-01 12:04 34.79429 136.40829 23551 ft 464 kts 78°
2026-05-01 12:05 34.79703 136.44738 24003 ft 468 kts 78°
2026-05-01 12:05 34.80253 136.52664 24878 ft 475 kts 79°
2026-05-01 12:05 34.80530 136.56675 25293 ft 479 kts 79°
2026-05-01 12:06 34.80807 136.60702 25684 ft 483 kts 80°
2026-05-01 12:06 34.81086 136.64785 26075 ft 487 kts 80°
2026-05-01 12:06 34.81367 136.68914 26420 ft 492 kts 80°
2026-05-01 12:06 34.81647 136.73061 26526 ft 493 kts 81°
2026-05-01 12:07 34.81925 136.77228 26627 ft 494 kts 81°
2026-05-01 12:07 34.82203 136.81396 26639 ft 496 kts 81°
2026-05-01 12:07 34.82481 136.85588 26638 ft 496 kts 81°
2026-05-01 12:07 34.82757 136.89774 26638 ft 497 kts 81°
2026-05-01 12:08 34.82953 136.93970 26639 ft 499 kts 86°
2026-05-01 12:08 34.82729 136.98206 26641 ft 503 kts 95°
2026-05-01 12:08 34.82246 137.02426 26641 ft 503 kts 96°
2026-05-01 12:08 34.81773 137.06644 26641 ft 503 kts 96°
2026-05-01 12:09 34.81304 137.10866 26643 ft 503 kts 96°
2026-05-01 12:09 34.80837 137.15082 26644 ft 503 kts 96°
2026-05-01 12:09 34.80366 137.19294 26649 ft 504 kts 96°
2026-05-01 12:09 34.79898 137.23465 26647 ft 504 kts 96°
2026-05-01 12:10 34.79423 137.27683 26648 ft 503 kts 96°
2026-05-01 12:10 34.78467 137.36114 26647 ft 504 kts 96°
2026-05-01 12:10 34.77985 137.40345 26647 ft 504 kts 96°
2026-05-01 12:11 34.77021 137.48779 26641 ft 503 kts 97°
2026-05-01 12:11 34.76537 137.52987 26642 ft 504 kts 97°
2026-05-01 12:11 34.76050 137.57215 26637 ft 505 kts 97°
2026-05-01 12:12 34.75562 137.61439 26641 ft 505 kts 97°
2026-05-01 12:12 34.75072 137.65662 26637 ft 505 kts 97°
2026-05-01 12:12 34.74586 137.69886 26639 ft 504 kts 96°
2026-05-01 12:12 34.74167 137.74109 26637 ft 503 kts 95°
2026-05-01 12:13 34.73781 137.78345 26632 ft 503 kts 95°
2026-05-01 12:13 34.73398 137.82567 26624 ft 502 kts 95°
2026-05-01 12:13 34.73007 137.86781 26617 ft 501 kts 96°
2026-05-01 12:13 34.72610 137.90982 26607 ft 501 kts 96°
2026-05-01 12:14 34.72208 137.95185 26600 ft 500 kts 96°
2026-05-01 12:14 34.71803 137.99371 26593 ft 499 kts 96°
2026-05-01 12:14 34.71463 138.03568 26586 ft 498 kts 91°
2026-05-01 12:14 34.71456 138.07781 26585 ft 497 kts 88°
2026-05-01 12:15 34.71481 138.11982 26583 ft 497 kts 88°
2026-05-01 12:15 34.71500 138.16177 26579 ft 497 kts 89°
2026-05-01 12:15 34.71516 138.20371 26577 ft 497 kts 89°
2026-05-01 12:15 34.71530 138.24577 26581 ft 497 kts 89°
2026-05-01 12:16 34.71541 138.28770 26583 ft 497 kts 89°
2026-05-01 12:16 34.71551 138.32971 26583 ft 497 kts 89°
2026-05-01 12:16 34.71560 138.37170 26587 ft 497 kts 89°
2026-05-01 12:16 34.71567 138.41373 26590 ft 497 kts 89°
2026-05-01 12:17 34.71573 138.45574 26592 ft 498 kts 89°
2026-05-01 12:17 34.71578 138.49785 26593 ft 498 kts 90°
2026-05-01 12:17 34.71581 138.53994 26595 ft 499 kts 90°
2026-05-01 12:17 34.71583 138.58204 26597 ft 499 kts 90°
2026-05-01 12:18 34.71584 138.62423 26599 ft 499 kts 90°
2026-05-01 12:18 34.71582 138.66622 26593 ft 498 kts 90°
2026-05-01 12:18 34.71580 138.70831 26593 ft 498 kts 91°
2026-05-01 12:18 34.71576 138.75021 26594 ft 498 kts 91°
2026-05-01 12:19 34.71570 138.79234 26586 ft 499 kts 91°
2026-05-01 12:19 34.71563 138.83398 26568 ft 499 kts 91°
2026-05-01 12:19 34.71550 138.87603 26255 ft 496 kts 91°
2026-05-01 12:19 34.71534 138.91787 25627 ft 496 kts 91°
2026-05-01 12:20 34.71515 138.95994 24800 ft 499 kts 92°
2026-05-01 12:20 34.71494 139.00214 23931 ft 503 kts 92°
2026-05-01 12:20 34.71475 139.04450 23305 ft 500 kts 92°
2026-05-01 12:20 34.71455 139.08656 22647 ft 494 kts 92°
2026-05-01 12:21 34.71434 139.12810 22000 ft 489 kts 92°
2026-05-01 12:21 34.71411 139.16914 21368 ft 483 kts 92°
2026-05-01 12:21 34.71386 139.20979 20706 ft 479 kts 92°
2026-05-01 12:21 34.71360 139.25015 20060 ft 475 kts 92°
2026-05-01 12:22 34.71333 139.29004 19446 ft 470 kts 92°
2026-05-01 12:22 34.71315 139.31630 19040 ft 468 kts 93°
2026-05-01 12:22 34.71276 139.36887 18239 ft 462 kts 93°
2026-05-01 12:22 34.71484 139.40761 17656 ft 461 kts 80°
2026-05-01 12:23 34.72300 139.44521 17000 ft 456 kts 71°
2026-05-01 12:23 34.73548 139.48001 16645 ft 442 kts 58°
2026-05-01 12:23 34.75324 139.50945 16381 ft 424 kts 42°
2026-05-01 12:23 34.76726 139.52549 16208 ft 413 kts 37°
2026-05-01 12:24 34.79604 139.55622 15864 ft 412 kts 36°
2026-05-01 12:24 34.81037 139.57131 15700 ft 411 kts 36°
2026-05-01 12:24 34.83200 139.59396 15439 ft 409 kts 36°
2026-05-01 12:24 34.85350 139.61643 15177 ft 406 kts 36°
2026-05-01 12:25 34.87486 139.63872 14929 ft 404 kts 36°
2026-05-01 12:25 34.91730 139.68305 14439 ft 401 kts 36°
2026-05-01 12:25 34.93833 139.70506 14157 ft 399 kts 36°
2026-05-01 12:26 34.95930 139.72700 13685 ft 399 kts 36°
2026-05-01 12:26 34.99990 139.77153 13289 ft 395 kts 40°
2026-05-01 12:26 35.01942 139.79484 13180 ft 396 kts 40°
2026-05-01 12:27 35.03910 139.81829 13072 ft 395 kts 40°
2026-05-01 12:27 35.07121 139.85689 13044 ft 396 kts 45°
2026-05-01 12:28 35.09299 139.91318 13032 ft 401 kts 84°
2026-05-01 12:28 35.09246 139.94689 13040 ft 395 kts 105°
2026-05-01 12:28 35.06706 140.00310 13044 ft 372 kts 142°
2026-05-01 12:29 35.04868 140.02513 13044 ft 372 kts 142°
2026-05-01 12:29 35.03168 140.04924 12923 ft 382 kts 129°
2026-05-01 12:29 35.01792 140.11226 12403 ft 397 kts 88°
2026-05-01 12:30 35.03876 140.17345 11884 ft 394 kts 45°
2026-05-01 12:30 35.05968 140.19414 11623 ft 383 kts 23°
2026-05-01 12:30 35.08418 140.20473 11374 ft 367 kts
2026-05-01 12:31 35.10901 140.20469 11128 ft 352 kts 344°
2026-05-01 12:31 35.13315 140.20036 10876 ft 351 kts 344°
2026-05-01 12:31 35.15759 140.19761 10620 ft 353 kts 349°
2026-05-01 12:31 35.18197 140.19751 10466 ft 349 kts 354°
2026-05-01 12:32 35.20591 140.19927 10349 ft 339 kts 356°
2026-05-01 12:32 35.25117 140.20474 10050 ft 316 kts 357°
2026-05-01 12:32 35.27298 140.20755 9676 ft 314 kts 357°
2026-05-01 12:33 35.29464 140.21030 9279 ft 312 kts 357°
2026-05-01 12:33 35.31609 140.21300 8853 ft 310 kts 356°
2026-05-01 12:33 35.33750 140.21570 8448 ft 308 kts 356°
2026-05-01 12:33 35.35857 140.21838 8209 ft 299 kts 356°
2026-05-01 12:34 35.37896 140.21898 8113 ft 289 kts 345°
2026-05-01 12:34 35.39837 140.21529 8017 ft 284 kts 339°
2026-05-01 12:34 35.40738 140.21324 8001 ft 283 kts 340°
2026-05-01 12:34 35.42096 140.21020 7997 ft 284 kts 340°
2026-05-01 12:35 35.42898 140.20843 7997 ft 285 kts 340°
2026-05-01 12:35 35.44745 140.20436 7993 ft 286 kts 340°
2026-05-01 12:35 35.46680 140.20006 7989 ft 285 kts 340°
2026-05-01 12:35 35.48482 140.19760 7991 ft 294 kts 355°
2026-05-01 12:36 35.50503 140.20428 7988 ft 312 kts 21°
2026-05-01 12:36 35.52221 140.22113 7984 ft 324 kts 47°
2026-05-01 12:36 35.53298 140.24554 7989 ft 329 kts 73°
2026-05-01 12:36 35.53739 140.27424 7986 ft 360 kts 82°
2026-05-01 12:37 35.54131 140.30578 7982 ft 374 kts 82°
2026-05-01 12:37 35.54521 140.33703 7978 ft 364 kts 82°
2026-05-01 12:37 35.54890 140.36675 7978 ft 347 kts 82°
2026-05-01 12:37 35.55254 140.39568 7977 ft 330 kts 82°
2026-05-01 12:38 35.55601 140.42299 7980 ft 331 kts 82°
2026-05-01 12:38 35.55961 140.45100 7980 ft 332 kts 82°
2026-05-01 12:38 35.56164 140.47901 7980 ft 328 kts 98°
2026-05-01 12:38 35.55566 140.50545 7981 ft 317 kts 125°
2026-05-01 12:39 35.54229 140.52581 7982 ft 299 kts 151°
2026-05-01 12:39 35.52460 140.53695 7986 ft 280 kts 171°
2026-05-01 12:39 35.50612 140.54428 7985 ft 279 kts 172°
2026-05-01 12:39 35.48765 140.55154 7990 ft 279 kts 172°
2026-05-01 12:40 35.46913 140.55882 7994 ft 279 kts 172°
2026-05-01 12:40 35.45070 140.56608 8000 ft 278 kts 172°
2026-05-01 12:40 35.43227 140.57340 8004 ft 278 kts 172°
2026-05-01 12:40 35.41391 140.58072 8008 ft 278 kts 172°
2026-05-01 12:41 35.39552 140.58803 8011 ft 277 kts 172°
2026-05-01 12:41 35.37720 140.59534 8014 ft 277 kts 172°
2026-05-01 12:41 35.35892 140.60268 8017 ft 276 kts 172°
2026-05-01 12:41 35.34069 140.61000 8021 ft 275 kts 172°
2026-05-01 12:42 35.32251 140.61728 8022 ft 275 kts 172°
2026-05-01 12:42 35.30435 140.62455 8022 ft 275 kts 172°
2026-05-01 12:42 35.28614 140.63186 8027 ft 275 kts 172°
2026-05-01 12:42 35.26793 140.63745 8030 ft 261 kts 187°
2026-05-01 12:43 35.25098 140.63349 8033 ft 242 kts 214°
2026-05-01 12:43 35.23881 140.62035 8036 ft 232 kts 240°
2026-05-01 12:43 35.23430 140.60161 8032 ft 236 kts 266°
2026-05-01 12:43 35.23863 140.58196 8036 ft 250 kts 290°
2026-05-01 12:44 35.24749 140.56353 8037 ft 252 kts 292°
2026-05-01 12:44 35.25649 140.54517 8029 ft 251 kts 292°
2026-05-01 12:44 35.27428 140.50867 8027 ft 250 kts 292°
2026-05-01 12:45 35.29197 140.47213 8023 ft 249 kts 292°
2026-05-01 12:45 35.30079 140.45388 8023 ft 249 kts 292°
2026-05-01 12:45 35.30959 140.43561 8024 ft 249 kts 292°
2026-05-01 12:46 35.31839 140.41730 8022 ft 250 kts 292°
2026-05-01 12:46 35.32718 140.39898 8018 ft 250 kts 292°
2026-05-01 12:46 35.33582 140.38088 8015 ft 249 kts 292°
2026-05-01 12:46 35.34460 140.36232 8015 ft 249 kts 292°
2026-05-01 12:47 35.35306 140.34428 8015 ft 248 kts 292°
2026-05-01 12:47 35.36156 140.32602 8011 ft 248 kts 292°
2026-05-01 12:47 35.37010 140.30759 8014 ft 248 kts 292°
2026-05-01 12:47 35.37920 140.28948 8009 ft 255 kts 303°
2026-05-01 12:48 35.39358 140.27618 8011 ft 271 kts 323°
2026-05-01 12:48 35.41110 140.26697 8004 ft 276 kts 329°
2026-05-01 12:48 35.42837 140.25917 7982 ft 276 kts 330°
2026-05-01 12:48 35.44629 140.25073 7850 ft 274 kts 329°
2026-05-01 12:49 35.46395 140.24176 7727 ft 273 kts 328°
2026-05-01 12:49 35.48111 140.23257 7599 ft 272 kts 327°
2026-05-01 12:49 35.49850 140.22299 7466 ft 270 kts 327°
2026-05-01 12:49 35.51557 140.21345 7306 ft 270 kts 327°
2026-05-01 12:50 35.53255 140.20425 7150 ft 271 kts 331°
2026-05-01 12:50 35.55051 140.19771 7047 ft 265 kts 336°
2026-05-01 12:50 35.56784 140.19189 6992 ft 251 kts 336°
2026-05-01 12:50 35.58294 140.18408 6997 ft 222 kts 315°
2026-05-01 12:51 35.59274 140.17091 7003 ft 206 kts 294°
2026-05-01 12:51 35.59976 140.15533 6994 ft 208 kts 292°
2026-05-01 12:51 35.60558 140.12207 6999 ft 202 kts 267°
2026-05-01 12:52 35.60531 140.10475 6985 ft 202 kts 268°
2026-05-01 12:52 35.60513 140.07080 6486 ft 197 kts 269°
2026-05-01 12:52 35.60508 140.05465 6330 ft 182 kts 269°
2026-05-01 12:53 35.60495 140.02467 5571 ft 177 kts 270°
2026-05-01 12:53 35.60488 140.00944 5065 ft 181 kts 269°
2026-05-01 12:53 35.60481 139.99383 4577 ft 184 kts 270°
2026-05-01 12:54 35.60473 139.97796 4083 ft 187 kts 270°
2026-05-01 12:54 35.60457 139.94542 3126 ft 189 kts 269°
2026-05-01 12:54 35.60450 139.92988 3006 ft 175 kts 269°
2026-05-01 12:55 35.60435 139.90082 2368 ft 170 kts 268°
2026-05-01 12:55 35.60437 139.88688 2038 ft 158 kts 268°
2026-05-01 12:55 35.60456 139.87367 1614 ft 155 kts 268°
2026-05-01 12:56 35.60512 139.86125 1445 ft 139 kts 268°
2026-05-01 12:56 35.60602 139.84983 1310 ft 125 kts 268°
2026-05-01 12:56 35.60724 139.83911 1185 ft 124 kts 269°
2026-05-01 12:56 35.60777 139.82909 1067 ft 113 kts 255°
2026-05-01 12:57 35.60510 139.82040 1071 ft 111 kts 244°
2026-05-01 12:57 35.59625 139.80448 944 ft 117 kts 229°
2026-05-01 12:57 35.59040 139.79736 684 ft 119 kts 223°
2026-05-01 12:58 35.58367 139.79107 472 ft 124 kts 218°
2026-05-01 12:58 35.57666 139.78495 320 ft 127 kts 216°
2026-05-01 12:58 35.56915 139.77856 161 ft 134 kts 217°
2026-05-01 12:59 35.55626 139.76744 26 ft 62 kts 214°
2026-05-01 12:59 35.55354 139.76525 26 ft 32 kts 206°
2026-05-01 12:59 35.55154 139.76453 26 ft 0 kts 190°
2026-05-01 13:00 35.55152 139.76453 25 ft 2 kts 189°
2026-05-01 13:01 35.55108 139.76456 27 ft 0 kts 166°
2026-05-01 13:07 35.56358 139.78223 24 ft 0 kts 81°
2026-05-01 13:07 35.56361 139.78230 24 ft 3 kts 59°
2026-05-01 13:07 35.56390 139.78271 28 ft 11 kts 52°
2026-05-01 13:08 35.56426 139.78371 25 ft 12 kts 96°
2026-05-01 13:08 35.56355 139.78437 26 ft 15 kts 153°
2026-05-01 13:08 35.56259 139.78508 24 ft 18 kts 149°
2026-05-01 13:08 35.56164 139.78575 27 ft 11 kts 150°
2026-05-01 13:09 35.56085 139.78633 22 ft 15 kts 149°
2026-05-01 13:09 35.55986 139.78701 24 ft 18 kts 151°
2026-05-01 13:09 35.55872 139.78781 25 ft 20 kts 149°
2026-05-01 13:09 35.55751 139.78868 23 ft 18 kts 150°
2026-05-01 13:10 35.55638 139.78948 25 ft 17 kts 150°
2026-05-01 13:10 35.55549 139.79010 26 ft 15 kts 151°
2026-05-01 13:10 35.55488 139.79048 27 ft 4 kts 166°
2026-05-01 13:10 35.55468 139.79043 29 ft 6 kts 196°
2026-05-01 13:11 35.55433 139.78999 27 ft 9 kts 244°
2026-05-01 13:11 35.55409 139.78952 27 ft 0 kts 237°
2026-05-01 13:11 35.55406 139.78946 27 ft 3 kts 237°
2026-05-01 13:11 35.55395 139.78925 27 ft 6 kts 237°
2026-05-01 13:12 35.55393 139.78863 26 ft 10 kts 285°
2026-05-01 13:12 35.55406 139.78805 27 ft 6 kts 285°
2026-05-01 13:12 35.55408 139.78796 27 ft 0 kts 285°